Location: Newark
(49.9828°N, 3.1606°E)
Time: 14:35:55
(UTC+00:00)

Envisat - Pass Details

Date: 31 January 2020
Orbit: 764 x 766 km, 98.1° (Epoch: 28 February)

Event Time Altitude Azimuth Distance (km) Brightness Sun altitude
Rises 18:46:32 0° 207° (SSW) 3,223 6.6 -20.5°
Reaches altitude 10° 18:49:26 10° 224° (SW) 2,302 6.1 -21.0°
Maximum altitude 18:53:05 20° 271° (W) 1,734 5.7 -21.6°
Drops below altitude 10° 18:56:46 10° 317° (NW) 2,314 6.0 -22.2°
Sets 18:59:43 0° 334° (NNW) 3,246 6.6 -22.6°
